period_start,C,m1,H,J0,J1,J2,J3,J4,J5,JA,JB,JC,JD,JJ,JK,JN,#
2016-12-04 00:00:25,0.21,15.83,0.00,15.14,19.59,23.53,15.13,54.36,1022.48,2050.99,823.58,1095.93,1240.77,599.89,615.66,48.06,0000 0000 0000 0000 000000
2016-12-04 00:05:27,0.28,15.85,0.00,15.13,19.59,23.53,15.20,54.60,1022.48,2050.99,822.71,1095.10,1239.99,599.94,615.79,48.11,0000 0000 0000 0000 000000
2016-12-04 00:10:28,0.26,15.86,0.00,15.13,19.59,23.52,15.23,54.55,1022.48,2050.99,821.88,1094.46,1239.13,599.95,615.78,48.16,0000 0000 0000 0000 000000
2016-12-04 00:15:29,0.25,15.88,0.00,15.13,19.59,23.53,15.10,54.39,1022.48,2050.99,821.05,1093.85,1238.32,599.89,615.71,48.21,0000 0000 0000 0000 000000
2016-12-04 00:20:31,0.30,15.89,0.00,15.12,19.59,23.54,15.04,54.38,1022.47,2050.99,820.30,1093.05,1237.50,599.78,615.63,48.26,0000 0000 0000 0000 000000
2016-12-04 00:25:32,0.28,15.90,0.00,15.11,19.59,23.51,15.14,54.35,1022.47,2051.00,819.56,1092.43,1236.81,599.82,615.79,48.31,0000 0000 0000 0000 000000
2016-12-04 00:30:33,0.21,15.91,0.00,15.13,19.58,23.49,15.26,54.46,1022.45,2051.00,818.74,1091.84,1236.02,599.97,615.76,48.37,0000 0000 0000 0000 000000
2016-12-04 00:35:35,0.26,15.93,0.00,15.12,19.57,23.50,15.19,54.45,1022.46,2051.00,817.92,1091.05,1235.17,600.05,615.89,48.42,0000 0000 0000 0000 000000
2016-12-04 00:40:36,0.31,15.94,0.00,15.12,19.57,23.50,15.18,54.54,1022.44,2051.00,817.04,1090.40,1234.48,600.07,615.87,48.47,0000 0000 0000 0000 000000
2016-12-04 00:45:38,0.24,15.96,0.00,15.14,19.57,23.49,15.27,54.59,1022.45,2051.00,816.18,1089.86,1233.75,600.12,615.92,48.52,0000 0000 0000 0000 000000
2016-12-04 00:50:39,0.27,15.97,0.00,15.12,19.56,23.47,15.18,54.60,1022.48,2051.00,815.50,1089.05,1232.99,599.90,615.69,48.57,0000 0000 0000 0000 000000
2016-12-04 00:55:40,0.23,15.98,0.00,15.11,19.55,23.46,15.23,54.56,1022.48,2051.00,814.84,1088.49,1232.15,599.99,616.00,48.62,0000 0000 0000 0000 000000
2016-12-04 01:00:42,0.21,15.99,0.00,15.10,19.54,23.44,15.12,54.42,1022.48,2051.00,814.05,1087.95,1231.49,599.97,615.82,48.67,0000 0000 0000 0000 000000
2016-12-04 01:05:42,0.29,16.01,0.00,15.10,19.54,23.46,15.28,54.49,1022.48,2051.00,813.24,1087.12,1230.91,600.14,616.07,48.72,0000 0000 0000 0000 000000
2016-12-04 01:10:44,0.18,16.02,0.00,15.11,19.54,23.46,15.17,54.56,1022.48,2051.00,812.61,1086.98,1230.09,599.99,615.82,48.77,0000 0000 0000 0000 000000
2016-12-04 01:15:45,0.25,16.03,0.00,15.11,19.54,23.45,15.18,54.67,1022.48,2051.00,811.89,1086.22,1229.48,599.96,615.89,48.82,0000 0000 0000 0000 000000
2016-12-04 01:20:47,0.19,16.04,0.00,15.11,19.54,23.44,15.15,54.63,1022.48,2051.00,811.06,1085.84,1228.92,600.02,615.80,48.87,0000 0000 0000 0000 000000
2016-12-04 01:25:48,0.28,16.05,0.00,15.09,19.53,23.42,15.22,54.63,1022.48,2051.01,810.57,1085.08,1228.10,600.26,616.20,48.92,0000 0000 0000 0000 000000
2016-12-04 01:30:49,0.16,16.06,0.00,15.08,19.53,23.47,15.21,54.58,1022.48,2051.02,810.00,1084.74,1227.53,600.13,616.11,48.97,0000 0000 0000 0000 000000
2016-12-04 01:35:50,0.23,16.07,0.00,15.06,19.53,23.50,15.12,54.51,1022.48,2051.02,809.30,1084.04,1226.98,599.90,615.83,49.02,0000 0000 0000 0000 000000
2016-12-04 01:40:52,0.23,16.08,0.00,15.07,19.52,23.49,15.25,54.52,1022.48,2051.01,808.73,1083.63,1226.15,600.12,616.05,49.07,0000 0000 0000 0000 000000
2016-12-04 01:45:53,0.18,16.10,0.00,15.08,19.52,23.45,15.12,54.42,1022.48,2051.01,808.01,1083.01,1225.66,599.80,615.81,49.12,0000 0000 0000 0000 000000
2016-12-04 01:50:54,0.28,16.11,0.00,15.07,19.52,23.44,15.21,54.39,1022.48,2051.01,807.29,1082.42,1225.01,600.30,616.22,49.17,0000 0000 0000 0000 000000
2016-12-04 01:55:56,0.11,16.12,0.00,15.06,19.52,23.45,15.13,54.40,1022.48,2051.01,806.94,1081.99,1224.27,600.25,616.07,49.23,0000 0000 0000 0000 000000
2016-12-04 02:00:57,0.29,16.13,0.00,15.05,19.52,23.46,15.23,54.38,1022.48,2051.01,806.13,1081.38,1223.76,600.01,616.04,49.28,0000 0000 0000 0000 000000
2016-12-04 02:05:58,0.20,16.14,0.00,15.05,19.52,23.50,15.15,54.53,1022.48,2051.01,805.50,1080.98,1223.03,599.91,615.92,49.33,0000 0000 0000 0000 000000
2016-12-04 02:10:59,0.21,16.15,0.00,15.05,19.52,23.45,15.10,54.33,1022.48,2051.00,804.93,1080.26,1222.45,599.87,615.92,49.38,0000 0000 0000 0000 000000
2016-12-04 02:16:00,0.16,16.16,0.00,15.04,19.51,23.48,15.26,54.42,1022.48,2051.01,804.25,1079.95,1221.97,600.11,616.07,49.43,0000 0000 0000 0000 000000
2016-12-04 02:21:01,0.23,16.17,0.00,15.06,19.50,23.45,15.18,54.36,1022.48,2051.02,803.79,1079.20,1221.16,600.06,616.09,49.48,0000 0000 0000 0000 000000
2016-12-04 02:26:03,0.20,16.18,0.00,15.06,19.50,23.43,15.15,54.36,1022.50,2051.02,803.04,1078.84,1220.62,599.74,615.76,49.53,0000 0000 0000 0000 000000
2016-12-04 02:31:04,0.26,16.20,0.00,15.06,19.50,23.41,15.15,54.29,1022.55,2051.01,802.40,1078.09,1220.00,599.95,616.02,49.58,0000 0000 0000 0000 000000
2016-12-04 02:36:05,0.22,16.21,0.00,15.06,19.49,23.44,15.18,54.58,1022.54,2051.01,801.73,1077.71,1219.28,599.90,615.95,49.63,0000 0000 0000 0000 000000
2016-12-04 02:41:07,0.19,16.22,0.00,15.06,19.49,23.42,15.20,54.61,1022.74,2051.01,800.96,1077.02,1218.79,599.93,616.02,49.68,0000 0000 0000 0000 000000
2016-12-04 02:46:08,0.31,16.23,0.00,15.06,19.49,23.44,15.27,54.61,1022.80,2051.02,800.10,1076.44,1218.03,600.25,616.49,49.73,0000 0000 0000 0000 000000
2016-12-04 02:51:10,0.21,16.24,0.00,15.06,19.49,23.43,15.24,54.60,1022.90,2051.03,799.61,1075.99,1217.35,600.32,616.54,49.78,0000 0000 0000 0000 000000
2016-12-04 02:56:11,0.17,16.26,0.00,15.07,19.49,23.46,15.15,54.46,1022.77,2051.05,799.02,1075.39,1216.87,599.83,615.89,49.83,0000 0000 0000 0000 000000
2016-12-04 03:01:12,0.21,16.27,0.00,15.07,19.49,23.44,15.16,54.53,1022.87,2051.05,798.42,1074.99,1216.07,599.60,615.79,49.88,0000 0000 0000 0000 000000
2016-12-04 03:06:14,0.18,16.27,0.00,15.06,19.49,23.44,15.15,54.43,1022.90,2051.05,797.99,1074.36,1215.68,600.04,616.28,49.93,0000 0000 0000 0000 000000
2016-12-04 03:11:15,0.20,16.29,0.00,15.05,19.49,23.44,15.22,54.48,1022.75,2051.03,797.28,1073.99,1215.02,599.99,616.21,49.98,0000 0000 0000 0000 000000
2016-12-04 03:16:16,0.23,16.29,0.00,15.06,19.49,23.43,15.18,54.45,1022.77,2051.03,796.74,1073.33,1214.66,600.06,616.11,50.03,0000 0000 0000 0000 000000
2016-12-04 03:21:18,0.14,16.31,0.00,15.07,19.49,23.42,15.18,54.33,1022.73,2051.06,796.04,1072.99,1214.02,599.84,615.95,50.09,0000 0000 0000 0000 000000
2016-12-04 03:26:19,0.21,16.31,0.00,15.06,19.49,23.46,15.24,54.42,1022.93,2051.01,795.78,1072.42,1213.39,600.36,616.73,50.14,0000 0000 0000 0000 000000
2016-12-04 03:31:20,0.13,16.33,0.00,15.07,19.49,23.44,15.21,54.32,1022.91,2051.02,795.05,1072.01,1212.99,600.13,616.41,50.19,0000 0000 0000 0000 000000
2016-12-04 03:36:21,0.29,16.33,0.00,15.07,19.49,23.42,15.17,54.40,1022.87,2051.03,794.55,1071.58,1212.23,599.99,616.13,50.24,0000 0000 0000 0000 000000
2016-12-04 03:41:23,0.08,16.35,0.00,15.05,19.47,23.43,15.23,54.51,1022.89,2051.02,793.99,1071.01,1211.93,600.01,616.36,50.29,0000 0000 0000 0000 000000
2016-12-04 03:46:24,0.33,16.36,0.00,15.05,19.47,23.42,15.20,54.50,1022.89,2051.06,793.24,1070.54,1211.13,600.09,616.28,50.34,0000 0000 0000 0000 000000
2016-12-04 03:51:26,0.16,16.36,0.00,15.05,19.47,23.42,15.14,54.39,1022.83,2051.11,792.75,1070.01,1210.76,599.71,615.92,50.39,0000 0000 0000 0000 000000
2016-12-04 03:56:27,0.20,16.38,0.00,15.05,19.46,23.43,15.21,54.55,1022.79,2051.12,792.03,1069.60,1210.03,600.18,616.30,50.44,0000 0000 0000 0000 000000
2016-12-04 04:01:28,0.22,16.39,0.00,15.06,19.44,23.38,15.18,54.43,1022.85,2051.09,791.58,1069.03,1209.47,599.96,616.15,50.49,0000 0000 0000 0000 000000
2016-12-04 04:06:30,0.17,16.40,0.00,15.06,19.44,23.37,15.17,54.44,1022.90,2051.11,790.96,1068.59,1208.99,599.84,616.08,50.54,0000 0000 0000 0000 000000
2016-12-04 04:11:31,0.30,16.41,0.00,15.05,19.44,23.39,15.25,54.48,1022.83,2051.29,790.14,1068.01,1208.26,600.16,616.41,50.59,0000 0000 0000 0000 000000
2016-12-04 04:16:33,0.13,16.42,0.00,15.05,19.44,23.41,15.18,54.34,1022.92,2051.33,789.83,1067.68,1207.90,599.98,616.14,50.64,0000 0000 0000 0000 000000
2016-12-04 04:21:34,0.29,16.44,0.00,15.04,19.44,23.37,15.17,54.43,1022.94,2051.51,789.05,1067.03,1207.10,599.78,616.06,50.69,0000 0000 0000 0000 000000
2016-12-04 04:26:35,0.22,16.44,0.00,15.03,19.43,23.41,15.20,54.48,1022.84,2051.43,788.45,1066.70,1206.70,599.95,616.17,50.74,0000 0000 0000 0000 000000
2016-12-04 04:31:36,0.16,16.46,0.00,15.02,19.42,23.38,15.17,54.50,1022.69,2051.60,787.97,1066.03,1206.02,599.98,616.12,50.79,0000 0000 0000 0000 000000
2016-12-04 04:36:37,0.31,16.47,0.00,15.02,19.42,23.37,15.24,54.41,1022.81,2051.71,787.17,1065.66,1205.49,600.22,616.48,50.84,0000 0000 0000 0000 000000
2016-12-04 04:41:39,0.11,16.48,0.00,15.04,19.42,23.39,15.22,54.51,1022.90,2051.80,786.89,1065.02,1204.97,599.88,616.24,50.89,0000 0000 0000 0000 000000
2016-12-04 04:46:40,0.28,16.49,0.00,15.03,19.42,23.39,15.24,54.49,1022.81,2051.78,786.09,1064.74,1204.17,599.97,616.29,50.94,0000 0000 0000 0000 000000
2016-12-04 04:51:41,0.21,16.50,0.00,15.03,19.42,23.36,15.21,54.57,1022.58,2051.85,785.64,1064.04,1203.83,600.33,616.47,50.99,0000 0000 0000 0000 000000
2016-12-04 04:56:42,0.19,16.51,0.00,15.04,19.42,23.38,15.19,54.42,1022.91,2051.86,784.98,1063.67,1203.05,599.80,616.10,51.05,0000 0000 0000 0000 000000
2016-12-04 05:01:44,0.27,16.52,0.00,15.04,19.42,23.39,15.21,54.53,1022.96,2051.84,784.22,1063.02,1202.58,599.87,616.19,51.10,0000 0000 0000 0000 000000
2016-12-04 05:06:45,0.19,16.53,0.00,15.05,19.42,23.37,15.20,54.45,1022.96,2051.83,783.69,1062.62,1202.00,600.07,616.21,51.15,0000 0000 0000 0000 000000
2016-12-04 05:11:47,0.19,16.54,0.00,15.04,19.42,23.36,15.28,54.59,1022.95,2051.82,783.02,1062.01,1201.31,600.19,616.49,51.20,0000 0000 0000 0000 000000
2016-12-04 05:16:48,0.26,16.55,0.00,15.03,19.42,23.37,15.22,54.52,1022.96,2051.89,782.42,1061.54,1200.94,599.67,616.00,51.25,0000 0000 0000 0000 000000
2016-12-04 05:21:49,0.15,16.57,0.00,15.05,19.42,23.38,15.16,54.62,1022.96,2051.96,781.93,1061.02,1200.14,599.94,616.23,51.30,0000 0000 0000 0000 000000
2016-12-04 05:26:50,0.26,16.58,0.00,15.05,19.42,23.38,15.18,54.60,1022.96,2051.95,781.12,1060.64,1199.82,599.92,616.02,51.35,0000 0000 0000 0000 000000
2016-12-04 05:31:51,0.16,16.59,0.00,15.05,19.44,23.37,15.22,54.73,1022.96,2051.97,780.78,1060.02,1199.07,599.83,616.14,51.40,0000 0000 0000 0000 000000
2016-12-04 05:36:52,0.24,16.60,0.00,15.04,19.44,23.38,15.15,54.67,1022.98,2051.94,780.06,1059.66,1198.56,599.88,616.19,51.45,0000 0000 0000 0000 000000
2016-12-04 05:41:54,0.11,16.61,0.00,15.03,19.44,23.40,15.23,54.67,1022.96,2051.94,779.84,1059.02,1198.01,600.29,616.67,51.50,0000 0000 0000 0000 000000
2016-12-04 05:46:55,0.25,16.62,0.00,15.02,19.44,23.41,15.18,54.48,1022.96,2051.95,779.09,1058.76,1197.33,599.74,615.99,51.55,0000 0000 0000 0000 000000
2016-12-04 05:51:56,0.24,16.63,0.00,15.03,19.44,23.37,15.16,54.48,1022.96,2051.96,778.66,1058.03,1196.63,599.87,616.18,51.60,0000 0000 0000 0000 000000
2016-12-04 05:56:58,0.32,16.64,0.00,15.03,19.45,23.45,15.17,54.52,1022.96,2051.90,777.71,1057.24,1195.83,599.86,616.16,51.65,0000 0000 0000 0000 000000
2016-12-04 06:01:59,0.19,16.66,0.00,15.03,19.45,23.42,15.21,54.62,1022.96,2051.68,776.94,1056.68,1195.03,599.84,616.26,51.70,0000 0000 0000 0000 000000
2016-12-04 06:07:01,0.31,16.67,0.00,15.03,19.44,23.42,15.18,54.63,1022.96,2051.79,776.10,1055.99,1194.25,599.83,616.27,51.75,0000 0000 0000 0000 000000
2016-12-04 06:12:02,0.32,16.69,0.00,15.03,19.44,23.44,15.15,54.65,1022.97,2051.72,775.18,1055.29,1193.75,599.96,616.25,51.80,0000 0000 0000 0000 000000
2016-12-04 06:17:03,0.24,16.70,0.00,15.04,19.44,23.41,15.18,54.74,1023.05,2051.84,774.42,1054.96,1193.03,599.99,616.43,51.85,0000 0000 0000 0000 000000
2016-12-04 06:22:05,0.20,16.71,0.00,15.03,19.44,23.38,15.26,54.60,1023.26,2051.91,773.96,1054.19,1192.47,600.09,616.64,51.91,0000 0000 0000 0000 000000
2016-12-04 06:27:06,0.21,16.72,0.00,15.04,19.44,23.42,15.23,54.77,1023.39,2051.89,773.13,1053.86,1191.95,600.02,616.54,51.96,0000 0000 0000 0000 000000
2016-12-04 06:32:08,0.22,16.73,0.00,15.04,19.44,23.36,15.22,54.75,1023.43,2051.96,772.84,1053.09,1191.12,600.07,616.70,52.01,0000 0000 0000 0000 000000
2016-12-04 06:37:09,0.26,16.74,0.00,15.04,19.44,23.40,15.20,54.83,1023.45,2051.94,772.04,1052.69,1190.49,599.88,616.49,52.06,0000 0000 0000 0000 000000
2016-12-04 06:42:10,0.25,16.76,0.00,15.02,19.44,23.40,15.26,54.70,1023.45,2051.85,771.40,1052.01,1189.76,600.32,616.83,52.11,0000 0000 0000 0000 000000
2016-12-04 06:47:11,0.30,16.77,0.00,15.04,19.44,23.37,15.23,54.62,1023.45,2051.74,770.59,1051.25,1189.02,599.91,616.47,52.16,0000 0000 0000 0000 000000
2016-12-04 06:52:12,0.15,16.78,0.00,15.01,19.44,23.42,15.25,54.88,1023.45,2051.84,769.95,1050.92,1188.39,600.17,616.92,52.21,0000 0000 0000 0000 000000
2016-12-04 06:57:13,0.34,16.80,0.00,15.04,19.44,23.43,15.22,54.81,1023.45,2051.90,769.10,1050.09,1187.73,599.86,616.41,52.26,0000 0000 0000 0000 000000
2016-12-04 07:02:15,0.28,16.81,0.00,15.04,19.44,23.40,15.22,54.77,1023.46,2051.91,768.38,1049.68,1187.02,599.74,616.45,52.31,0000 0000 0000 0000 000000
2016-12-04 07:07:16,0.14,16.82,0.00,15.03,19.44,23.44,15.19,54.72,1023.45,2051.88,767.90,1049.02,1186.36,600.42,617.05,52.36,0000 0000 0000 0000 000000
2016-12-04 07:12:17,0.24,16.83,0.00,15.03,19.45,23.42,15.24,54.74,1023.46,2051.76,767.10,1048.58,1185.92,600.05,616.59,52.41,0000 0000 0000 0000 000000
2016-12-04 07:17:18,0.11,16.84,0.00,15.04,19.45,23.41,15.13,54.71,1023.45,2051.69,766.93,1048.02,1185.09,599.79,616.35,52.46,0000 0000 0000 0000 000000
2016-12-04 07:22:19,0.31,16.85,0.00,15.04,19.46,23.39,15.18,54.72,1023.45,2051.61,766.09,1047.58,1184.60,600.12,616.81,52.51,0000 0000 0000 0000 000000
2016-12-04 07:27:21,0.12,16.86,0.00,15.03,19.47,23.41,15.16,54.67,1023.45,2051.43,765.66,1047.01,1184.01,599.79,616.36,52.56,0000 0000 0000 0000 000000
2016-12-04 07:32:22,0.23,16.87,0.00,15.03,19.47,23.43,15.20,54.72,1023.45,2051.37,765.02,1046.43,1183.27,600.14,616.80,52.61,0000 0000 0000 0000 000000
2016-12-04 07:37:23,0.26,16.89,0.00,15.03,19.47,23.44,15.27,54.74,1023.45,2051.53,764.31,1046.00,1182.84,600.10,616.67,52.66,0000 0000 0000 0000 000000
2016-12-04 07:42:24,0.14,16.90,0.00,15.04,19.47,23.40,15.29,54.74,1023.45,2051.39,763.89,1045.38,1182.06,600.11,616.56,52.71,0000 0000 0000 0000 000000
2016-12-04 07:47:26,0.24,16.91,0.00,15.05,19.47,23.42,15.16,54.77,1023.47,2051.27,763.07,1045.00,1181.61,599.79,616.35,52.76,0000 0000 0000 0000 000000
2016-12-04 07:52:27,0.26,16.91,0.00,15.06,19.46,23.43,15.18,54.83,1023.45,2051.24,762.59,1044.39,1181.00,599.99,616.62,52.81,0000 0000 0000 0000 000000
2016-12-04 07:57:29,0.17,16.93,0.00,15.07,19.46,23.39,15.18,54.83,1023.46,2051.48,762.01,1044.00,1180.42,599.97,616.52,52.87,0000 0000 0000 0000 000000
2016-12-04 08:02:30,0.24,16.94,0.00,15.06,19.46,23.41,15.22,54.81,1023.52,2051.48,761.42,1043.54,1180.00,599.87,616.65,52.92,0000 0000 0000 0000 000000
2016-12-04 08:07:31,0.11,16.95,0.00,15.09,19.46,23.38,15.28,54.97,1023.48,2051.27,760.97,1043.01,1179.28,600.06,616.63,52.97,0000 0000 0000 0000 000000
2016-12-04 08:12:33,0.29,16.96,0.00,15.08,19.45,23.39,15.15,54.95,1023.52,2051.42,760.20,1042.65,1178.92,600.07,616.63,53.02,0000 0000 0000 0000 000000
2016-12-04 08:17:34,0.16,16.97,0.00,15.07,19.45,23.37,15.21,54.95,1023.77,2051.51,759.93,1042.02,1178.16,599.59,616.44,53.07,0000 0000 0000 0000 000000
2016-12-04 08:22:35,0.25,16.98,0.00,15.06,19.47,23.40,15.21,54.76,1023.84,2051.74,759.19,1041.81,1177.91,600.16,616.94,53.12,0000 0000 0000 0000 000000
2016-12-04 08:27:37,0.19,16.99,0.00,15.07,19.47,23.40,15.22,54.93,1023.63,2051.79,758.87,1041.07,1177.12,600.11,616.85,53.17,0000 0000 0000 0000 000000
2016-12-04 08:32:38,0.27,17.00,0.00,15.07,19.47,23.42,15.17,54.84,1023.66,2051.68,758.11,1040.69,1176.44,599.99,616.66,53.22,0000 0000 0000 0000 000000
2016-12-04 08:37:39,0.16,17.01,0.00,15.08,19.47,23.42,15.25,54.71,1023.86,2051.61,757.70,1040.03,1175.99,600.24,616.79,53.27,0000 0000 0000 0000 000000
2016-12-04 08:42:41,0.14,17.02,0.00,15.06,19.47,23.40,15.27,54.74,1023.94,2051.26,757.00,1039.73,1175.26,600.21,617.02,53.32,0000 0000 0000 0000 000000
2016-12-04 08:47:42,0.25,17.03,0.00,15.07,19.47,23.42,15.19,54.80,1023.94,2051.16,756.20,1039.04,1174.94,599.78,616.56,53.37,0000 0000 0000 0000 000000
2016-12-04 08:52:43,0.26,17.04,0.00,15.06,19.47,23.41,15.27,54.88,1023.97,2051.20,755.65,1038.70,1174.13,600.21,616.98,53.42,0000 0000 0000 0000 000000
2016-12-04 08:57:45,0.18,17.06,0.00,15.07,19.47,23.40,15.29,54.88,1024.16,2051.40,755.01,1038.02,1173.86,599.89,616.90,53.47,0000 0000 0000 0000 000000
2016-12-04 09:02:46,0.11,17.06,0.00,15.09,19.47,23.41,15.18,54.79,1024.20,2051.46,754.84,1037.92,1173.08,600.14,617.06,53.52,0000 0000 0000 0000 000000
2016-12-04 09:07:48,0.32,17.08,0.00,15.08,19.47,23.42,15.25,54.89,1024.09,2051.54,754.21,1037.16,1172.61,599.94,616.85,53.57,0000 0000 0000 0000 000000
2016-12-04 09:12:49,0.04,17.08,0.00,15.08,19.47,23.44,15.22,54.82,1024.04,2051.16,753.77,1036.97,1172.01,600.23,617.16,53.62,0000 0000 0000 0000 000000
2016-12-04 09:17:50,0.28,17.10,0.00,15.10,19.47,23.42,15.16,54.67,1023.96,2051.16,753.06,1036.25,1171.54,599.76,616.65,53.67,0000 0000 0000 0000 000000
2016-12-04 09:22:52,0.08,17.10,0.00,15.09,19.47,23.41,15.20,54.80,1023.99,2051.15,752.83,1035.99,1171.00,600.13,616.93,53.73,0000 0000 0000 0000 000000
2016-12-04 09:27:53,0.29,17.11,0.00,15.10,19.47,23.42,15.17,54.92,1024.11,2051.12,752.04,1035.47,1170.47,599.76,616.57,53.78,0000 0000 0000 0000 000000
2016-12-04 09:32:54,0.04,17.12,0.00,15.09,19.46,23.43,15.21,54.83,1024.03,2051.08,751.97,1035.01,1170.00,599.79,616.75,53.83,0000 0000 0000 0000 000000
2016-12-04 09:37:55,0.29,17.13,0.00,15.08,19.44,23.39,15.20,54.64,1023.95,2051.05,751.23,1034.72,1169.31,599.93,616.82,53.88,0000 0000 0000 0000 000000
2016-12-04 09:42:56,0.10,17.14,0.00,15.08,19.44,23.42,15.24,54.66,1023.99,2051.04,750.89,1034.04,1168.99,600.10,616.97,53.93,0000 0000 0000 0000 000000
2016-12-04 09:47:58,0.25,17.15,0.00,15.08,19.44,23.37,15.18,54.75,1024.10,2051.05,750.07,1033.90,1168.34,600.07,616.99,53.98,0000 0000 0000 0000 000000
2016-12-04 09:52:59,0.28,17.16,0.00,15.07,19.44,23.36,15.24,54.70,1024.35,2051.14,749.52,1033.13,1167.98,600.15,617.15,54.03,0000 0000 0000 0000 000000
2016-12-04 09:58:00,0.15,17.17,0.00,15.08,19.42,23.39,15.22,54.73,1024.40,2051.35,748.90,1032.92,1167.44,599.85,617.16,54.08,0000 0000 0000 0000 000000
2016-12-04 10:03:02,0.36,17.19,0.00,15.10,19.42,23.34,15.18,54.84,1024.43,2051.47,748.05,1032.09,1166.87,599.69,616.78,54.13,0000 0000 0000 0000 000000
2016-12-04 10:08:03,0.16,17.20,0.00,15.08,19.42,23.38,15.17,54.73,1024.43,2051.48,747.71,1031.93,1166.08,600.00,617.10,54.18,0000 0000 0000 0000 000000
2016-12-04 10:13:04,0.22,17.21,0.00,15.11,19.42,23.36,15.13,54.76,1024.43,2051.35,747.01,1031.12,1165.76,599.68,616.74,54.23,0000 0000 0000 0000 000000
2016-12-04 10:18:05,0.19,17.22,0.00,15.10,19.42,23.39,15.17,54.79,1024.43,2051.38,746.52,1030.98,1165.05,599.63,616.78,54.28,0000 0000 0000 0000 000000
2016-12-04 10:23:06,0.28,17.23,0.00,15.09,19.42,23.39,15.26,54.77,1024.47,2051.57,745.98,1030.24,1164.46,599.87,617.05,54.33,0000 0000 0000 0000 000000
2016-12-04 10:28:08,0.19,17.25,0.00,15.09,19.42,23.38,15.28,54.71,1024.44,2051.59,745.18,1029.99,1164.00,600.28,617.40,54.38,0000 0000 0000 0000 000000
2016-12-04 10:33:09,0.22,17.25,0.00,15.07,19.42,23.39,15.25,54.88,1024.44,2051.48,744.80,1029.35,1163.39,600.14,617.22,54.43,0000 0000 0000 0000 000000
2016-12-04 10:38:10,0.17,17.27,0.00,15.09,19.42,23.38,15.20,54.80,1024.45,2051.57,744.06,1029.00,1162.99,599.94,617.11,54.48,0000 0000 0000 0000 000000
2016-12-04 10:43:12,0.17,17.27,0.00,15.09,19.43,23.38,15.25,54.77,1024.44,2051.48,743.90,1028.55,1162.27,599.92,617.09,54.53,0000 0000 0000 0000 000000
2016-12-04 10:48:13,0.21,17.29,0.00,15.10,19.44,23.40,15.13,54.79,1024.44,2051.49,743.09,1028.01,1161.92,599.62,616.72,54.59,0000 0000 0000 0000 000000
2016-12-04 10:53:14,0.24,17.29,0.00,15.08,19.44,23.45,15.30,54.88,1024.44,2051.42,742.65,1027.68,1161.14,600.09,617.23,54.64,0000 0000 0000 0000 000000
2016-12-04 10:58:15,0.15,17.31,0.00,15.09,19.44,23.43,15.23,54.81,1024.46,2051.44,742.03,1027.03,1160.87,600.21,617.40,54.69,0000 0000 0000 0000 000000
2016-12-04 11:03:17,0.23,17.31,0.00,15.07,19.44,23.41,15.25,54.87,1024.47,2051.25,741.46,1026.82,1160.09,600.23,617.38,54.74,0000 0000 0000 0000 000000
2016-12-04 11:08:18,0.16,17.33,0.00,15.07,19.44,23.41,15.25,54.92,1024.50,2051.23,740.88,1026.06,1159.88,600.23,617.42,54.79,0000 0000 0000 0000 000000
2016-12-04 11:13:19,0.27,17.34,0.00,15.07,19.44,23.39,15.16,55.07,1024.46,2051.40,740.10,1025.96,1159.11,599.99,617.15,54.84,0000 0000 0000 0000 000000
2016-12-04 11:18:20,0.59,17.36,0.00,15.07,19.44,23.41,15.20,55.07,1024.43,2051.73,739.10,1024.69,1158.14,600.20,617.37,54.89,0000 0000 0000 0000 000000
2016-12-04 11:23:21,0.28,17.38,0.00,15.09,19.44,23.42,15.21,54.99,1024.44,2051.86,738.09,1024.01,1157.16,599.80,616.95,54.94,0000 0000 0000 0000 000000
2016-12-04 11:28:23,0.19,17.39,0.00,15.10,19.44,23.43,15.21,54.97,1024.48,2051.78,737.66,1023.59,1156.92,600.15,617.24,54.99,0000 0000 0000 0000 000000
2016-12-04 11:33:24,0.21,17.41,0.00,15.08,19.44,23.37,15.25,55.01,1024.44,2051.85,737.02,1023.02,1156.14,600.11,617.21,55.04,0000 0000 0000 0000 000000
2016-12-04 11:38:26,0.14,17.41,0.00,15.10,19.44,23.39,15.20,55.13,1024.44,2051.93,736.61,1022.99,1155.97,599.95,617.03,55.09,0000 0000 0000 0000 000000
2016-12-04 11:43:27,0.23,17.42,0.00,15.09,19.44,23.41,15.22,55.12,1024.43,2051.86,736.01,1022.31,1155.19,599.93,617.05,55.14,0000 0000 0000 0000 000000
2016-12-04 11:48:29,0.03,17.43,0.00,15.08,19.44,23.42,15.24,55.16,1024.43,2051.89,735.98,1022.00,1154.93,599.97,617.07,55.19,0000 0000 0000 0000 000000
2016-12-04 11:53:30,0.30,17.44,0.00,15.08,19.45,23.41,15.25,55.02,1024.43,2051.90,735.36,1021.71,1154.16,600.12,617.31,55.24,0000 0000 0000 0000 000000
2016-12-04 11:58:31,0.11,17.45,0.00,15.07,19.46,23.42,15.20,55.02,1024.49,2051.70,734.79,1021.04,1153.90,599.67,616.81,55.29,0000 0000 0000 0000 000000
2016-12-04 12:03:33,0.20,17.46,0.00,15.06,19.47,23.43,15.22,55.16,1024.44,2051.62,734.04,1020.89,1153.13,599.78,616.96,55.34,0000 0000 0000 0000 000000
2016-12-04 12:08:34,0.14,17.47,0.00,15.07,19.47,23.42,15.12,54.90,1024.43,2051.64,733.92,1020.13,1152.91,599.98,617.13,55.39,0000 0000 0000 0000 000000
2016-12-04 12:13:35,0.16,17.47,0.00,15.07,19.47,23.41,15.17,55.04,1024.43,2051.42,733.24,1019.99,1152.13,599.77,616.84,55.44,0000 0000 0000 0000 000000
2016-12-04 12:18:37,0.15,17.48,0.00,15.07,19.47,23.41,15.25,55.08,1024.43,2051.40,732.99,1019.49,1151.85,599.90,617.05,55.49,0000 0000 0000 0000 000000
2016-12-04 12:23:38,0.23,17.49,0.00,15.07,19.48,23.45,15.30,55.13,1024.45,2051.17,732.34,1019.00,1151.07,600.02,617.19,55.55,0000 0000 0000 0000 000000
2016-12-04 12:28:40,0.06,17.50,0.00,15.06,19.47,23.43,15.15,54.88,1024.43,2051.12,732.00,1018.75,1150.97,599.88,616.92,55.60,0000 0000 0000 0000 000000
2016-12-04 12:33:41,0.28,17.51,0.00,15.08,19.48,23.42,15.20,54.97,1024.43,2051.05,731.56,1018.05,1150.23,600.02,617.07,55.65,0000 0000 0000 0000 000000
2016-12-04 12:38:42,0.06,17.52,0.00,15.05,19.47,23.43,15.20,55.02,1024.43,2051.03,731.01,1017.97,1149.99,599.87,617.08,55.70,0000 0000 0000 0000 000000
2016-12-04 12:43:44,0.29,17.52,0.00,15.04,19.47,23.41,15.23,54.94,1024.43,2051.03,730.66,1017.30,1149.38,600.13,617.42,55.75,0000 0000 0000 0000 000000
2016-12-04 12:48:45,0.11,17.54,0.00,15.05,19.47,23.41,15.18,54.92,1024.43,2051.04,730.03,1017.00,1149.00,599.70,616.95,55.80,0000 0000 0000 0000 000000
2016-12-04 12:53:47,0.15,17.54,0.00,15.06,19.47,23.41,15.27,54.93,1024.44,2051.06,729.83,1016.74,1148.49,600.13,617.39,55.85,0000 0000 0000 0000 000000